This demonstration page uses our WeatherBlox Daily Observations layout. Learn more.

Left ArrowRight Arrow

Hourly Observations for April 29, 2016

Temp ( °F °C ) Dew Point ( °F °C ) Humidity (%) Winds ( mph kmh ) Pressure ( in mb ) Visibility ( mi km ) Precip ( " mm )
12:53 am 00:53 Clear 62 16.7 37 2.8 40 40 N 7 11 29.93 1013 10 16 0.00 0.00
1:53 am 01:53 Clear 63 17.2 36 2.2 37 37 NW 6 9 29.92 1013 10 16 0.00 0.00
2:53 am 02:53 Clear 63 17.2 36 2.2 37 37 NW 6 9 29.93 1014 10 16 0.00 0.00
3:53 am 03:53 Clear 61 16.1 38 3.3 43 43 NW 6 9 29.94 1014 10 16 0.00 0.00
4:53 am 04:53 Clear 62 16.7 39 3.9 43 43 NW 8 13 29.94 1014 10 16 0.00 0.00
5:53 am 05:53 Clear 61 16.1 36 2.2 39 39 NW 6 9 29.93 1014 10 16 0.00 0.00
6:53 am 06:53 Sunny 59 15 37 2.8 44 44 Calm 29.95 1014 10 16 0.00 0.00
7:53 am 07:53 Sunny 61 16.1 39 3.9 44 44 NNW 7 11 29.95 1014 10 16 0.00 0.00
8:53 am 08:53 Sunny 64 17.8 40 4.4 41 41 N 6 9 29.95 1014 10 16 0.00 0.00
9:53 am 09:53 Sunny 68 20 39 3.9 35 35 NW 5 7 29.96 1015 10 16 0.00 0.00
10:53 am 10:53 Sunny 72 22.2 34 1.1 25 25 NE 5 7 29.95 1014 10 16 0.00 0.00
11:53 am 11:53 Sunny 74 23.3 35 1.7 24 24 VRB 3 6 29.93 1014 10 16 0.00 0.00
12:53 pm 12:53 Sunny 77 25 38 3.3 24 24 SSW 10 17 29.91 1013 10 16 0.00 0.00
1:53 pm 13:53 Sunny 77 25 37 2.8 24 24 S 12 19 29.88 1012 10 16 0.00 0.00
2:53 pm 14:53 Sunny 79 26.1 37 2.8 22 22 S 8 13 29.85 1011 10 16 0.00 0.00
3:53 pm 15:53 Mostly Cloudy 81 27.2 35 1.7 19 19 WNW 14 22 29.82 1010 10 16 0.00 0.00
4:53 pm 16:53 Mostly Cloudy 77 25 37 2.8 24 24 NNW 16 26 29.82 1010 10 16 0.00 0.03
5:53 pm 17:53 Partly Cloudy 75 23.9 38 3.3 26 26 N 15 24 29.85 1011 10 16 0.00 0.03
6:53 pm 18:53 Sunny 73 22.8 34 1.1 24 24 N 20 31 29.87 1011 10 16 0.00 0.00
7:53 pm 19:53 Sunny 69 20.6 31 -0.6 24 24 N 18 30 29.90 1012 10 16 0.00 0.00
8:53 pm 20:53 Clear 67 19.4 30 -1.1 25 25 N 16 26 29.96 1014 10 16 0.00 0.00
9:53 pm 21:53 Clear 65 18.3 32 0 29 29 N 12 19 29.98 1015 10 16 0.00 0.00
10:53 pm 22:53 Clear 64 17.8 33 0.6 32 32 N 13 20 29.99 1016 10 16 0.00 0.00
11:53 pm 23:53 Clear 63 17.2 33 0.6 33 33 N 12 19 30.02 1017 10 16 0.00 0.00

Powered by AerisWeather